TimeCDT,TemperatureF,Dew PointF,Humidity,Sea Level PressureIn,VisibilityMPH,Wind Direction,Wind SpeedMPH,Gust SpeedMPH,PrecipitationIn,Events,Conditions,WindDirDegrees,DateUTC
12:55 AM,43.0,25.0,49,29.83,10.0,South,4.6,-,N/A,,Mostly Cloudy,190,2012-10-08 05:55:00
1:55 AM,44.1,26.1,49,29.81,10.0,Calm,Calm,-,N/A,,Overcast,0,2012-10-08 06:55:00
2:55 AM,44.1,27.0,51,29.80,10.0,Calm,Calm,-,N/A,,Overcast,0,2012-10-08 07:55:00
3:55 AM,39.9,28.0,63,29.78,10.0,South,3.5,-,N/A,,Mostly Cloudy,170,2012-10-08 08:55:00
4:55 AM,41.0,28.0,60,29.75,10.0,South,4.6,-,N/A,,Mostly Cloudy,170,2012-10-08 09:55:00
5:55 AM,42.1,28.9,60,29.73,10.0,South,3.5,-,N/A,,Partly Cloudy,170,2012-10-08 10:55:00
6:55 AM,45.0,30.0,56,29.72,10.0,South,4.6,-,N/A,,Mostly Cloudy,190,2012-10-08 11:55:00
7:55 AM,46.9,30.0,52,29.71,10.0,SSW,8.1,-,N/A,,Overcast,200,2012-10-08 12:55:00
8:55 AM,48.0,30.0,50,29.70,10.0,South,8.1,-,N/A,,Overcast,190,2012-10-08 13:55:00
9:55 AM,57.0,28.9,34,29.69,10.0,WSW,10.4,-,N/A,,Partly Cloudy,240,2012-10-08 14:55:00
10:55 AM,61.0,30.9,32,29.68,10.0,West,16.1,28.8,N/A,,Clear,280,2012-10-08 15:55:00
11:55 AM,66.0,37.0,34,29.67,10.0,WNW,24.2,31.1,N/A,,Clear,300,2012-10-08 16:55:00
12:55 PM,64.9,39.9,40,29.68,10.0,WNW,21.9,32.2,N/A,,Clear,300,2012-10-08 17:55:00
1:55 PM,66.9,39.9,37,29.67,10.0,NW,26.5,32.2,N/A,,Clear,320,2012-10-08 18:55:00
2:55 PM,66.0,39.0,37,29.69,10.0,NW,23.0,31.1,N/A,,Mostly Cloudy,320,2012-10-08 19:55:00
3:55 PM,64.9,37.0,36,29.71,10.0,WNW,23.0,28.8,N/A,,Partly Cloudy,300,2012-10-08 20:55:00
4:55 PM,63.0,37.0,38,29.72,10.0,NW,19.6,25.3,N/A,,Overcast,320,2012-10-08 21:55:00
5:55 PM,61.0,37.0,41,29.73,10.0,NW,12.7,-,N/A,,Clear,320,2012-10-08 22:55:00
6:55 PM,59.0,35.1,41,29.75,10.0,NW,6.9,-,N/A,,Mostly Cloudy,320,2012-10-08 23:55:00
7:55 PM,55.0,35.1,47,29.77,8.0,WNW,4.6,-,N/A,,Overcast,290,2012-10-09 00:55:00
8:55 PM,55.0,36.0,49,29.78,10.0,NW,5.8,-,N/A,,Overcast,310,2012-10-09 01:55:00
9:55 PM,53.1,37.0,55,29.79,10.0,West,5.8,-,N/A,,Overcast,270,2012-10-09 02:55:00
10:55 PM,53.1,37.0,55,29.79,10.0,West,5.8,-,N/A,,Overcast,280,2012-10-09 03:55:00
11:55 PM,51.1,37.0,59,29.80,10.0,West,5.8,-,N/A,,Overcast,280,2012-10-09 04:55:00